Weather History for Oakland, MD

Change the Weather History Date:

Monday, March 10, 2014

  Actual Average (KMGW) Record (KMGW)
Temperature  
Mean Temperature 42 °F 40 °F  
Max Temperature 51 °F 50 °F 75 °F (1986)
Min Temperature 32 °F 30 °F 4 °F (1996)
Degree Days  
Heating Degree Days 24 25  
Month to date heating degree days 264  
Since 1 July heating degree days 4153  
Cooling Degree Days 0 0  
Month to date cooling degree days 0  
Year to date cooling degree days 0  
Moisture  
Dew Point 20 °F    
Average Humidity 46    
Maximum Humidity 64    
Minimum Humidity 26    
Precipitation  
Precipitation 0.00 in 0.11 in 1.02 in (1992)
Month to date precipitation 1.09  
Year to date precipitation 6.50  
Sea Level Pressure  
Sea Level Pressure 29.78 in    
Wind  
Wind Speed 16 mph (WSW)    
Max Wind Speed 21 mph    
Max Gust Speed 33 mph    
Visibility 10 miles    
Events      
T = Trace of Precipitation, MM = Missing Value Source: NWS Daily Summary

Daily Weather History Graph

Daily Weather History Graph

Search for Another Location

Airport:

Trip Planner

Search our weather history database for the weather conditions in past years. The results will help you decide how hot, cold, wet, or windy it might be!

Date:

Astronomy

Mar. 10, 2014 Rise Set
Actual Time 7:36 AM EDT 7:19 PM EDT
Civil Twilight 7:09 AM EDT 7:45 PM EDT
Nautical Twilight 6:38 AM EDT 8:17 PM EDT
Astronomical Twilight 6:07 AM EDT 8:48 PM EDT
Moon 2:02 PM EDT (3/10) 3:46 AM EDT (3/10)
Length of Visible Light 12h 36m
Length of Day
11h 42m
Waxing Gibbous, 70% of the Moon is Illuminated
Mar 10
Waxing Gibbous
Mar 16
Full
Mar 23
Last Quarter
Mar 30
New
Apr 7
First Quarter

Hourly Weather History & Observations

Time (EDT) Temp. Windchill Dew Point Humidity Pressure Visibility Wind Dir Wind Speed Gust Speed Precip Events Conditions
12:05 AM 32.0 °F 21.6 °F 15.8 °F 51% 29.91 in 10.0 mi West 15.0 mph 24.2 mph N/A   Clear
12:25 AM 32.0 °F 20.8 °F 17.6 °F 55% 29.91 in 10.0 mi WSW 17.3 mph 25.3 mph N/A   Clear
12:45 AM 32.0 °F 21.2 °F 17.6 °F 55% 29.90 in 10.0 mi WSW 16.1 mph 25.3 mph N/A   Clear
1:05 AM 32.0 °F 21.2 °F 17.6 °F 55% 29.89 in 10.0 mi WSW 16.1 mph 24.2 mph N/A   Scattered Clouds
1:25 AM 32.0 °F 21.6 °F 17.6 °F 55% 29.88 in 10.0 mi WSW 15.0 mph 25.3 mph N/A   Scattered Clouds
1:45 AM 32.0 °F 21.2 °F 19.4 °F 60% 29.88 in 10.0 mi West 16.1 mph 26.5 mph N/A   Scattered Clouds
2:10 AM 32.0 °F 21.6 °F 19.4 °F 60% 29.87 in 10.0 mi WSW 15.0 mph 27.6 mph N/A   Clear
2:30 AM 32.0 °F 20.8 °F 19.4 °F 60% 29.86 in 10.0 mi WSW 17.3 mph 29.9 mph N/A   Clear
2:50 AM 32.0 °F 20.5 °F 19.4 °F 60% 29.86 in 10.0 mi WSW 18.4 mph 27.6 mph N/A   Clear
3:10 AM 32.0 °F 21.2 °F 19.4 °F 60% 29.85 in 10.0 mi West 16.1 mph 28.8 mph N/A   Clear
3:30 AM 32.0 °F 21.2 °F 19.4 °F 60% 29.85 in 10.0 mi West 16.1 mph 27.6 mph N/A   Scattered Clouds
3:50 AM 32.0 °F 21.2 °F 19.4 °F 60% 29.84 in 10.0 mi WSW 16.1 mph 28.8 mph N/A   Clear
4:10 AM 32.0 °F 20.8 °F 19.4 °F 60% 29.84 in 10.0 mi WSW 17.3 mph 28.8 mph N/A   Clear
4:30 AM 32.0 °F 21.2 °F 21.2 °F 64% 29.83 in 10.0 mi WSW 16.1 mph 26.5 mph N/A   Scattered Clouds
4:50 AM 32.0 °F 20.5 °F 19.4 °F 60% 29.83 in 10.0 mi WSW 18.4 mph 28.8 mph N/A   Mostly Cloudy
5:10 AM 32.0 °F 19.8 °F 19.4 °F 60% 29.83 in 10.0 mi WSW 20.7 mph 31.1 mph N/A   Mostly Cloudy
5:30 AM 32.0 °F 21.2 °F 19.4 °F 60% 29.82 in 10.0 mi WSW 16.1 mph 29.9 mph N/A   Scattered Clouds
5:50 AM 32.0 °F 20.1 °F 19.4 °F 60% 29.82 in 10.0 mi WSW 19.6 mph 28.8 mph N/A   Clear
6:10 AM 32.0 °F 19.8 °F 19.4 °F 60% 29.82 in 10.0 mi WSW 20.7 mph 26.5 mph N/A   Clear
6:30 AM 32.0 °F 20.1 °F 19.4 °F 60% 29.83 in 10.0 mi WSW 19.6 mph 33.4 mph N/A   Clear
6:50 AM 32.0 °F 20.5 °F 19.4 °F 60% 29.83 in 10.0 mi WSW 18.4 mph 29.9 mph N/A   Clear
7:10 AM 32.0 °F 20.5 °F 21.2 °F 64% 29.81 in 10.0 mi WSW 18.4 mph 29.9 mph N/A   Clear
7:30 AM 32.0 °F 21.2 °F 21.2 °F 64% 29.81 in 10.0 mi WSW 16.1 mph 25.3 mph N/A   Clear
7:50 AM 32.0 °F 21.2 °F 21.2 °F 64% 29.81 in 10.0 mi WSW 16.1 mph 26.5 mph N/A   Clear
8:10 AM 32.0 °F 20.1 °F 21.2 °F 64% 29.82 in 10.0 mi WSW 19.6 mph 29.9 mph N/A   Scattered Clouds
8:30 AM 32.0 °F 21.6 °F 21.2 °F 64% 29.81 in 10.0 mi WSW 15.0 mph 28.8 mph N/A   Clear
8:50 AM 32.0 °F 22.1 °F 21.2 °F 64% 29.82 in 10.0 mi WSW 13.8 mph 25.3 mph N/A   Clear
9:10 AM 33.8 °F 23.2 °F 21.2 °F 60% 29.82 in 10.0 mi WSW 17.3 mph 24.2 mph N/A   Clear
9:30 AM 35.6 °F 25.2 °F 21.2 °F 56% 29.82 in 10.0 mi West 18.4 mph 21.9 mph N/A   Scattered Clouds
9:50 AM 35.6 °F 26.6 °F 23.0 °F 60% 29.82 in 10.0 mi West 13.8 mph 23.0 mph N/A   Mostly Cloudy
10:10 AM 35.6 °F 27.1 °F 23.0 °F 60% 29.82 in 10.0 mi WSW 12.7 mph 24.2 mph N/A   Mostly Cloudy
10:30 AM 37.4 °F 28.2 °F 21.2 °F 52% 29.81 in 10.0 mi WSW 16.1 mph 24.2 mph N/A   Scattered Clouds
10:50 AM 39.2 °F 30.2 °F 21.2 °F 49% 29.81 in 10.0 mi WSW 17.3 mph 26.5 mph N/A   Scattered Clouds
11:10 AM 41.0 °F 32.5 °F 21.2 °F 45% 29.81 in 10.0 mi WSW 17.3 mph 25.3 mph N/A   Clear
11:30 AM 41.0 °F 32.8 °F 21.2 °F 45% 29.80 in 10.0 mi WSW 16.1 mph 23.0 mph N/A   Clear
11:50 AM 41.0 °F 34.3 °F 21.2 °F 45% 29.78 in 10.0 mi WSW 11.5 mph 28.8 mph N/A   Scattered Clouds
12:10 PM 42.8 °F 35.1 °F 21.2 °F 42% 29.79 in 10.0 mi WSW 16.1 mph 23.0 mph N/A   Scattered Clouds
12:30 PM 42.8 °F 35.1 °F 19.4 °F 39% 29.79 in 10.0 mi WSW 16.1 mph 26.5 mph N/A   Mostly Cloudy
12:50 PM 42.8 °F 36.2 °F 19.4 °F 39% 29.79 in 10.0 mi WSW 12.7 mph 25.3 mph N/A   Overcast
1:10 PM 44.6 °F 38.1 °F 19.4 °F 37% 29.78 in 10.0 mi WSW 13.8 mph 20.7 mph N/A   Mostly Cloudy
1:30 PM 46.4 °F 40.4 °F 19.4 °F 34% 29.77 in 10.0 mi WSW 13.8 mph 24.2 mph N/A   Scattered Clouds
1:50 PM 44.6 °F 37.8 °F 19.4 °F 37% 29.75 in 10.0 mi WSW 15.0 mph 25.3 mph N/A   Mostly Cloudy
2:10 PM 44.6 °F 38.1 °F 19.4 °F 37% 29.74 in 10.0 mi WSW 13.8 mph 24.2 mph N/A   Overcast
2:30 PM 46.4 °F 41.5 °F 17.6 °F 32% 29.72 in 10.0 mi WSW 10.4 mph 17.3 mph N/A   Mostly Cloudy
2:50 PM 46.4 °F 39.5 °F 17.6 °F 32% 29.72 in 10.0 mi WSW 17.3 mph 26.5 mph N/A   Overcast
3:10 PM 48.2 °F - 17.6 °F 30% 29.71 in 10.0 mi WSW 16.1 mph 28.8 mph N/A   Scattered Clouds
3:30 PM 50.0 °F - 17.6 °F 28% 29.70 in 10.0 mi WSW 20.7 mph 32.2 mph N/A   Scattered Clouds
3:50 PM 50.0 °F - 17.6 °F 28% 29.70 in 10.0 mi WSW 15.0 mph 28.8 mph N/A   Clear
4:10 PM 50.0 °F - 17.6 °F 28% 29.70 in 10.0 mi WSW 18.4 mph 28.8 mph N/A   Clear
4:30 PM 51.8 °F - 17.6 °F 26% 29.70 in 10.0 mi West 18.4 mph 26.5 mph N/A   Clear
4:50 PM 51.8 °F - 17.6 °F 26% 29.69 in 10.0 mi WSW 16.1 mph 25.3 mph N/A   Clear
5:10 PM 51.8 °F - 17.6 °F 26% 29.70 in 10.0 mi West 15.0 mph 25.3 mph N/A   Clear
5:30 PM 51.8 °F - 17.6 °F 26% 29.69 in 10.0 mi West 17.3 mph 25.3 mph N/A   Clear
5:50 PM 51.8 °F - 17.6 °F 26% 29.68 in 10.0 mi West 17.3 mph 28.8 mph N/A   Clear
6:10 PM 51.8 °F - 17.6 °F 26% 29.68 in 10.0 mi WSW 18.4 mph 26.5 mph N/A   Clear
6:30 PM 50.0 °F - 19.4 °F 30% 29.68 in 10.0 mi WSW 18.4 mph 26.5 mph N/A   Clear
6:50 PM 50.0 °F - 19.4 °F 30% 29.68 in 10.0 mi West 17.3 mph 24.2 mph N/A   Clear
7:10 PM 50.0 °F - 19.4 °F 30% 29.70 in 10.0 mi WSW 13.8 mph 24.2 mph N/A   Clear
7:30 PM 48.2 °F - 21.2 °F 34% 29.71 in 10.0 mi WSW 9.2 mph - N/A   Clear
7:50 PM 48.2 °F - 21.2 °F 34% 29.70 in 10.0 mi WSW 16.1 mph 21.9 mph N/A   Clear
8:10 PM 48.2 °F - 21.2 °F 34% 29.70 in 10.0 mi SW 15.0 mph 24.2 mph N/A   Clear
8:30 PM 46.4 °F 40.4 °F 23.0 °F 40% 29.70 in 10.0 mi SW 13.8 mph 27.6 mph N/A   Clear
8:50 PM 46.4 °F 41.5 °F 23.0 °F 40% 29.71 in 10.0 mi WSW 10.4 mph 24.2 mph N/A   Clear
9:10 PM 46.4 °F 39.2 °F 23.0 °F 40% 29.71 in 10.0 mi WSW 18.4 mph 24.2 mph N/A   Clear
9:30 PM 46.4 °F 40.4 °F 23.0 °F 40% 29.71 in 10.0 mi WSW 13.8 mph 21.9 mph N/A   Clear
9:50 PM 48.2 °F - 23.0 °F 37% 29.71 in 10.0 mi WSW 13.8 mph 28.8 mph N/A   Clear
10:10 PM 46.4 °F 40.7 °F 23.0 °F 40% 29.72 in 10.0 mi WSW 12.7 mph 26.5 mph N/A   Clear
10:30 PM 46.4 °F 40.1 °F 23.0 °F 40% 29.72 in 10.0 mi WSW 15.0 mph 21.9 mph N/A   Clear
10:50 PM 46.4 °F 40.4 °F 23.0 °F 40% 29.72 in 10.0 mi WSW 13.8 mph 24.2 mph N/A   Clear
11:10 PM 46.4 °F 40.1 °F 24.8 °F 43% 29.72 in 10.0 mi WSW 15.0 mph 31.1 mph N/A   Clear
11:30 PM 46.4 °F 39.5 °F 24.8 °F 43% 29.72 in 10.0 mi WSW 17.3 mph 25.3 mph N/A   Clear
11:50 PM 46.4 °F 39.5 °F 26.6 °F 46% 29.72 in 10.0 mi WSW 17.3 mph 29.9 mph N/A   Clear